Location: A�t �Alizem
(31.2076°N, 8.7872°W)
Time: 05:49:25
(UTC+00:00)

deb Explorer IX - Pass Details

Date: 01 July 2021
Orbit: 541 x 1234 km, 38.9° (Epoch: 01 August)

Event Time Altitude Azimuth Distance (km) Brightness Sun altitude
Rises 22:13:06 0° 280° (W) 2,685 ? -25.4°
Reaches altitude 10° 22:15:29 10° 292° (WNW) 1,807 ? -25.8°
Maximum altitude 22:19:07 30° 355° (N) 1,032 ? -26.2°
Enters shadow 22:21:16 20° 41° (NE) 1,393 ? -26.5°
